Погода в Коломые

Украина / Ивано-Франковская область     48˚31′33″N   25˚02′16″E
темп.,
°C
ветер,
м/с
пор.,
м/с
влажн.,
%
обл.,
%
осадки,
мм/ч
давл.,
гПа
погр.,
м
5 декабря, сб
сб523:00+1˚юв228316 0.0 101643
02:00+1˚юв23848 0.0 101644
05:00+1˚юв23870 0.0 101661
08:00+2˚юв35890 0.0 1017103
11:00+6˚вюв46760 0.0 1018252
14:00+9˚вюв47750 0.0 1018264
17:00+5˚вюв47890 0.0 1019155
20:00+4˚юв47913 0.0 1020179
6 декабря, вс
вс623:00+4˚вюв48921 0.0 1021207
02:00+3˚вюв499316 0.0 1022266
05:00+3˚вюв499326 0.0 1021283
08:00+2˚вюв5109228 0.0 1022336
11:00+5˚вюв7128157 0.0 1021640
14:00+5˚вюв8137667 0.0 1020723
17:00+3˚вюв9148282 0.0 1020596
20:00+1˚вюв8148274 0.0 1021572
7 декабря, пн
пн723:00+1˚вюв8148360 0.0 1020540
02:00вюв8148159 0.0 1020550
05:00вюв9148060 0.0 1019562
08:00−1˚вюв9148052 0.0 1019529
11:00вюв9147162 0.0 1018708
14:00+1˚вюв9146642 0.0 1017743
17:00−2˚вюв814771 0.0 1018632
20:00−3˚вюв8137829 0.0 1019641
8 декабря, вт
вт823:00−3˚вюв8127781 0.0 1019639
02:00−3˚вюв7128147 0.0 1019524
05:00−3˚вюв7118271 0.0 1019508
08:00−2˚вюв6108485 0.0 1019512
11:00−1˚вюв698399 0.1 1020542
14:00вюв697599 0.1 1019516
17:00−1˚вюв5988100 0.1 1020402
20:00−2˚вюв589096 0.3 1020362
9 декабря, ср
ср923:00−2˚вюв489097 0.0 1020331
02:00−2˚вюв479396 0.0 1020280
05:00−2˚вюв379595 0.0 1020286
08:00−1˚вюв479196 0.0 1020345
11:00вюв5885100 0.0 1019446
14:00+1˚вюв698399 0.0 1017558
17:00вюв6109294 0.0 1017434
20:00+1˚вюв6118996 0.0 1016492